DW5657 Weather Reports


time (UTC)temp
C
wind
direction
speed
KPH
gust
KPH
rain 1hr
cm
rain 24hr
cm
rain mn
cm
humidity
%
barometer
mb
20260507124204 7 180 0.0 0.0 0.00 0.03 0.00 74 1015.0
20260507123203 7 354 0.0 1.6 0.00 0.03 0.00 75 1015.0
20260507122705 7 193 1.6 8.0 0.00 0.03 0.00 76 1015.2
20260507121704 6 202 0.0 0.0 0.00 0.03 0.00 77 1015.2
20260507121204 6 201 0.0 0.0 0.00 0.03 0.00 79 1015.1
20260507120703 6 194 0.0 8.0 0.00 0.03 0.00 81 1015.1
20260507120203 6 200 0.0 0.0 0.00 0.03 0.00 82 1015.1
20260507115704 6 195 0.0 0.0 0.00 0.03 0.00 84 1015.1
20260507115203 5 197 0.0 0.0 0.00 0.03 0.00 85 1015.0
20260507113704 5 0 0.0 0.0 0.00 0.03 0.00 89 1015.0
20260507113203 5 183 0.0 0.0 0.00 0.03 0.00 89 1015.0
20260507112703 5 140 0.0 0.0 0.00 0.03 0.00 89 1015.0
20260507112203 5 138 0.0 0.0 0.00 0.03 0.00 89 1015.0
20260507111703 5 137 0.0 0.0 0.00 0.03 0.00 88 1014.9
20260507111204 5 136 0.0 0.0 0.00 0.03 0.00 88 1014.9
20260507110704 5 138 0.0 0.0 0.00 0.03 0.00 88 1014.8
20260507110204 5 137 0.0 0.0 0.00 0.03 0.00 88 1014.7
20260507105703 5 136 0.0 0.0 0.00 0.03 0.00 88 1014.6
20260507104703 5 135 0.0 0.0 0.00 0.03 0.00 88 1014.5
20260507103703 5 136 0.0 0.0 0.00 0.03 0.00 88 1014.4
20260507103203 5 135 0.0 0.0 0.00 0.03 0.00 88 1014.4
20260507102703 5 135 0.0 0.0 0.00 0.03 0.00 88 1014.4
20260507102204 5 134 0.0 0.0 0.00 0.03 0.00 88 1014.4
20260507101204 5 134 0.0 0.0 0.00 0.03 0.00 88 1014.4
20260507100703 5 134 0.0 0.0 0.00 0.03 0.00 88 1014.4
20260507100203 5 135 0.0 0.0 0.00 0.03 0.00 87 1014.4
20260507095703 5 134 0.0 0.0 0.00 0.03 0.00 87 1014.4
20260507095203 5 133 0.0 0.0 0.00 0.03 0.00 87 1014.4
20260507093704 5 134 0.0 0.0 0.00 0.03 0.00 86 1014.5
20260507093204 5 136 0.0 0.0 0.00 0.03 0.00 87 1014.4
20260507092703 5 136 0.0 0.0 0.00 0.03 0.00 86 1014.3
20260507092204 5 136 0.0 0.0 0.00 0.03 0.00 87 1014.3
20260507091704 5 135 0.0 0.0 0.00 0.03 0.00 87 1014.2
20260507091203 5 136 0.0 0.0 0.00 0.03 0.00 86 1014.2
20260507090703 5 136 0.0 0.0 0.00 0.03 0.00 86 1014.2
20260507090203 5 136 0.0 0.0 0.00 0.03 0.00 86 1014.2
20260507085703 5 136 0.0 0.0 0.00 0.03 0.00 86 1014.1
20260507085204 5 135 0.0 0.0 0.00 0.03 0.00 86 1014.1
20260507084704 5 135 0.0 0.0 0.00 0.03 0.00 86 1014.0
20260507084204 5 135 0.0 0.0 0.00 0.03 0.00 85 1014.0
20260507083703 5 135 0.0 0.0 0.00 0.03 0.00 85 1014.0
20260507083203 6 136 0.0 0.0 0.00 0.03 0.00 85 1014.0
20260507082704 6 135 0.0 0.0 0.00 0.03 0.00 85 1013.9
20260507082203 6 135 0.0 0.0 0.00 0.03 0.00 85 1013.9
20260507081704 6 135 0.0 0.0 0.00 0.03 0.00 84 1013.9
20260507081203 6 134 0.0 0.0 0.00 0.03 0.00 84 1013.8
20260507080704 6 134 0.0 0.0 0.00 0.03 0.00 84 1013.9
20260507080204 6 134 0.0 0.0 0.00 0.03 0.00 84 1013.8
20260507075704 6 134 0.0 0.0 0.00 0.03 0.00 84 1013.8
20260507074204 6 133 0.0 0.0 0.00 0.03 0.00 84 1013.8
20260507073703 6 133 0.0 0.0 0.00 0.03 0.00 84 1013.8
20260507073204 6 133 0.0 0.0 0.00 0.03 0.00 84 1013.9
20260507072203 6 132 0.0 0.0 0.00 0.03 0.00 83 1013.9
20260507071703 6 133 0.0 0.0 0.00 0.03 0.00 83 1013.9
20260507070704 6 135 0.0 0.0 0.00 0.03 0.00 83 1013.8
20260507070203 6 134 0.0 0.0 0.00 0.03 0.00 83 1013.8
20260507065703 6 134 0.0 0.0 0.00 0.03 0.00 83 1013.8
20260507065204 6 133 0.0 0.0 0.00 0.03 0.00 83 1013.9
20260507064703 7 133 0.0 0.0 0.00 0.03 0.00 82 1013.9
20260507064210 7 132 0.0 0.0 0.00 0.03 0.00 82 1014.0
20260507063204 7 132 0.0 0.0 0.00 0.03 0.00 82 1014.1
20260507062703 7 132 0.0 0.0 0.00 0.03 0.00 82 1014.1
20260507062204 7 131 0.0 0.0 0.00 0.03 0.00 82 1014.0
20260507061704 7 130 0.0 0.0 0.00 0.03 0.00 82 1013.9
20260507061203 7 129 0.0 0.0 0.00 0.03 0.00 82 1013.9
20260507060705 7 129 0.0 0.0 0.00 0.03 0.00 82 1014.0
20260507055704 7 129 0.0 0.0 0.00 0.03 0.00 81 1014.0
20260507054704 7 127 0.0 0.0 0.00 0.03 0.00 81 1014.0
20260507054204 7 127 0.0 0.0 0.00 0.03 0.00 81 1014.1
20260507053703 7 126 0.0 0.0 0.00 0.03 0.00 81 1014.1
20260507053204 7 126 0.0 0.0 0.00 0.03 0.00 81 1014.2
20260507052205 7 127 0.0 0.0 0.00 0.03 0.00 80 1014.0
20260507051703 7 126 0.0 0.0 0.00 0.03 0.00 80 1014.0
20260507051205 7 124 0.0 0.0 0.00 0.03 0.00 79 1014.0
20260507045704 8 126 0.0 0.0 0.00 0.08 0.00 80 1014.2
20260507045203 8 125 0.0 0.0 0.00 0.08 0.00 80 1014.2
20260507044704 8 124 0.0 0.0 0.00 0.08 0.00 80 1014.2
20260507043704 8 124 0.0 0.0 0.00 0.08 0.00 79 1014.2
20260507043203 8 126 0.0 0.0 0.00 0.08 0.00 79 1014.2
20260507042705 8 125 0.0 0.0 0.00 0.08 0.00 78 1014.0
20260507041703 8 124 0.0 0.0 0.00 0.08 0.00 78 1014.1
20260507041203 8 121 0.0 0.0 0.00 0.08 0.00 78 1014.1
20260507040703 8 120 0.0 0.0 0.00 0.08 0.00 78 1014.1
20260507040204 8 118 0.0 0.0 0.00 0.08 0.00 78 1014.1
20260507035204 8 121 0.0 0.0 0.00 0.08 0.08 76 1014.0
20260507034704 8 121 0.0 0.0 0.00 0.08 0.08 76 1014.0
20260507033203 8 119 0.0 0.0 0.00 0.08 0.08 76 1014.1
20260507032704 9 119 0.0 0.0 0.00 0.08 0.08 75 1014.1
20260507032203 9 120 0.0 0.0 0.00 0.08 0.08 75 1014.1
20260507031705 9 119 0.0 0.0 0.00 0.08 0.08 75 1014.1
20260507030703 9 117 0.0 0.0 0.00 0.08 0.08 74 1014.2
20260507030204 9 115 0.0 0.0 0.00 0.08 0.08 74 1014.2
20260507025703 10 116 0.0 0.0 0.00 0.08 0.08 74 1014.2
20260507025204 10 115 0.0 0.0 0.00 0.08 0.08 73 1014.2
20260507024204 10 114 0.0 0.0 0.00 0.08 0.08 73 1014.1
20260507023704 10 113 0.0 0.0 0.00 0.08 0.08 72 1014.1
20260507023204 10 112 0.0 0.0 0.00 0.08 0.08 71 1014.1
20260507022205 10 112 0.0 0.0 0.00 0.08 0.08 71 1014.0
20260507021704 10 115 0.0 0.0 0.00 0.08 0.08 70 1014.0
20260507021204 10 115 0.0 0.0 0.00 0.08 0.08 70 1014.0
20260507020205 11 116 0.0 0.0 0.00 0.08 0.08 69 1013.8
20260507015704 11 113 0.0 0.0 0.00 0.08 0.08 69 1013.9
20260507015203 11 113 0.0 0.0 0.00 0.08 0.08 68 1013.9
20260507014204 11 112 0.0 0.0 0.00 0.08 0.08 66 1013.7
20260507013703 11 112 0.0 0.0 0.00 0.08 0.08 66 1013.7
20260507012704 12 107 0.0 0.0 0.00 0.08 0.08 64 1013.5
20260507012204 12 107 0.0 0.0 0.00 0.08 0.08 63 1013.5
20260507011704 12 105 0.0 0.0 0.00 0.08 0.08 62 1013.2
20260507010704 12 108 0.0 0.0 0.00 0.08 0.08 62 1013.4
20260507010203 12 105 0.0 0.0 0.00 0.08 0.08 62 1013.4
20260507005704 12 104 0.0 0.0 0.00 0.08 0.08 61 1013.4
20260507005203 12 105 0.0 0.0 0.00 0.08 0.08 60 1013.2
20260507004704 12 104 0.0 0.0 0.00 0.08 0.08 60 1013.4
20260507004204 12 103 0.0 0.0 0.00 0.08 0.08 60 1013.2
20260507003703 12 103 0.0 0.0 0.00 0.08 0.08 60 1013.4
20260507003204 13 102 0.0 0.0 0.00 0.08 0.08 59 1013.2
20260507002704 13 100 0.0 0.0 0.00 0.08 0.08 59 1013.1
20260507002204 13 100 0.0 0.0 0.00 0.08 0.08 58 1013.0
20260507001705 13 99 1.6 4.8 0.00 0.08 0.08 59 1013.1
20260507001203 13 168 0.0 0.0 0.00 0.08 0.08 57 1013.0
20260507000703 13 163 0.0 3.2 0.00 0.08 0.08 57 1012.9
20260507000205 13 52 0.0 3.2 0.00 0.08 0.08 57 1013.0
20260506235704 13 11 0.0 1.6 0.00 0.08 0.08 57 1012.9
20260506235203 13 135 0.0 3.2 0.00 0.08 0.08 56 1012.7
20260506233704 14 130 0.0 4.8 0.00 0.08 0.08 56 1012.7
20260506233204 14 86 1.6 9.7 0.00 0.08 0.08 55 1012.6
20260506232703 14 139 0.0 3.2 0.00 0.08 0.08 56 1012.6
20260506232203 14 126 0.0 1.6 0.00 0.08 0.08 56 1012.6
20260506231703 14 122 0.0 1.6 0.00 0.08 0.08 57 1012.4
20260506231204 14 146 0.0 4.8 0.00 0.08 0.08 56 1012.2
20260506230705 14 9 0.0 3.2 0.00 0.08 0.08 57 1012.3
20260506230204 14 14 1.6 4.8 0.00 0.08 0.08 54 1012.4
20260506225704 14 75 1.6 3.2 0.00 0.08 0.08 56 1012.4
20260506225204 14 38 0.0 3.2 0.00 0.08 0.08 54 1012.6
20260506224703 14 127 0.0 4.8 0.00 0.08 0.08 54 1012.5
20260506224203 14 86 0.0 3.2 0.00 0.08 0.08 56 1012.5
20260506223704 14 33 0.0 3.2 0.00 0.08 0.08 54 1012.5
20260506223204 14 123 0.0 0.0 0.00 0.08 0.08 54 1012.6
20260506222704 14 131 0.0 3.2 0.00 0.08 0.08 54 1012.7
20260506221705 14 121 1.6 3.2 0.00 0.08 0.08 54 1012.8
20260506221204 14 0 0.0 0.0 0.00 0.08 0.08 54 1012.9
20260506220703 14 5 0.0 1.6 0.00 0.08 0.08 55 1012.9
20260506220203 14 131 0.0 0.0 0.00 0.08 0.08 56 1012.9
20260506215703 15 121 0.0 4.8 0.00 0.08 0.08 54 1012.8
20260506215204 15 71 1.6 3.2 0.00 0.08 0.08 55 1012.9
20260506214205 15 120 0.0 3.2 0.00 0.08 0.08 55 1012.9
20260506213705 15 105 1.6 3.2 0.00 0.08 0.08 54 1012.7
20260506213203 15 135 0.0 8.0 0.00 0.08 0.08 54 1012.7
20260506212703 15 64 0.0 8.0 0.00 0.08 0.08 53 1012.7
20260506212203 15 19 0.0 3.2 0.00 0.08 0.08 53 1012.6
20260506211704 15 90 0.0 1.6 0.00 0.08 0.08 53 1012.6
20260506211203 15 22 0.0 1.6 0.00 0.08 0.08 53 1012.4
20260506210203 15 13 0.0 4.8 0.00 0.08 0.08 54 1012.3
20260506205703 15 15 0.0 4.8 0.00 0.08 0.08 54 1012.3
20260506205204 15 26 0.0 4.8 0.00 0.08 0.08 54 1012.3
20260506204703 15 23 1.6 8.0 0.00 0.08 0.08 54 1012.3
20260506204204 15 17 1.6 4.8 0.00 0.08 0.08 54 1012.3
20260506203703 15 17 0.0 3.2 0.00 0.08 0.08 53 1012.4
20260506203204 15 10 1.6 4.8 0.00 0.08 0.08 52 1012.5
20260506202704 15 110 1.6 3.2 0.00 0.08 0.08 53 1012.5
20260506202204 15 111 0.0 1.6 0.00 0.08 0.08 53 1012.5
20260506201704 15 120 0.0 3.2 0.00 0.08 0.08 53 1012.4
20260506201203 15 40 0.0 3.2 0.00 0.08 0.08 54 1012.3
20260506200703 15 134 1.6 4.8 0.00 0.08 0.08 52 1012.5
20260506200204 15 63 0.0 0.0 0.00 0.08 0.08 51 1012.4
20260506195704 15 96 0.0 3.2 0.00 0.08 0.08 52 1012.5
20260506195204 15 21 1.6 4.8 0.00 0.08 0.08 50 1012.5
20260506194204 15 123 0.0 0.0 0.00 0.08 0.08 51 1012.4
20260506193704 15 96 0.0 3.2 0.00 0.08 0.08 52 1012.4
20260506193204 15 109 1.6 4.8 0.00 0.08 0.08 52 1012.2
20260506192703 15 82 1.6 3.2 0.00 0.08 0.08 54 1012.1
20260506191204 15 119 3.2 8.0 0.00 0.08 0.08 53 1012.0
20260506190703 16 91 3.2 14.5 0.00 0.08 0.08 54 1012.1
20260506190203 16 89 3.2 14.5 0.00 0.08 0.08 53 1011.9
20260506185703 15 127 0.0 9.7 0.00 0.08 0.08 54 1011.8
20260506185205 15 108 1.6 4.8 0.00 0.08 0.08 53 1011.9
20260506184703 15 134 1.6 9.7 0.00 0.08 0.08 55 1012.0
20260506183705 15 75 1.6 11.3 0.00 0.08 0.08 54 1011.7
20260506182203 15 106 3.2 8.0 0.00 0.08 0.08 54 1011.9
20260506181705 15 87 1.6 8.0 0.00 0.08 0.08 54 1011.8
20260506181203 15 88 3.2 12.9 0.00 0.08 0.08 53 1011.9
20260506175704 15 58 1.6 8.0 0.00 0.08 0.08 52 1012.1
20260506175203 15 86 1.6 3.2 0.00 0.08 0.08 55 1012.2
20260506174703 15 88 0.0 1.6 0.00 0.08 0.08 54 1012.2
20260506174203 15 127 1.6 4.8 0.00 0.08 0.08 53 1012.3
20260506173204 15 90 1.6 9.7 0.00 0.08 0.08 55 1012.4
20260506172703 15 73 4.8 19.3 0.00 0.08 0.08 53 1012.2
20260506171203 15 40 1.6 9.7 0.00 0.08 0.08 58 1012.4
20260506170703 15 43 1.6 8.0 0.00 0.08 0.08 59 1012.6
20260506170204 15 26 0.0 3.2 0.00 0.08 0.08 59 1012.6
20260506165705 15 68 0.0 8.0 0.00 0.08 0.08 58 1012.4
20260506164203 15 340 3.2 12.9 0.00 0.08 0.08 60 1012.5
20260506163704 14 230 1.6 4.8 0.00 0.08 0.08 59 1012.5
20260506162704 14 4 1.6 4.8 0.00 0.08 0.08 60 1012.5
20260506162205 14 353 1.6 4.8 0.00 0.08 0.08 59 1012.6
20260506161703 14 11 3.2 11.3 0.00 0.08 0.08 62 1012.6
20260506161204 13 253 1.6 4.8 0.00 0.08 0.08 64 1012.5
20260506160703 13 103 1.6 8.0 0.03 0.08 0.08 63 1012.4
20260506160204 13 140 0.0 3.2 0.03 0.08 0.08 63 1012.4
20260506155703 13 24 0.0 3.2 0.03 0.08 0.08 59 1012.3
20260506155204 12 13 3.2 9.7 0.03 0.08 0.08 63 1012.3
20260506154704 12 43 1.6 8.0 0.03 0.08 0.08 64 1012.2
20260506154203 12 103 1.6 3.2 0.03 0.08 0.08 66 1012.1
20260506153203 12 26 1.6 11.3 0.03 0.08 0.08 67 1012.4
20260506152704 12 147 0.0 3.2 0.03 0.08 0.08 67 1012.6
20260506152203 12 35 1.6 11.3 0.03 0.08 0.08 66 1012.6
20260506151705 12 139 1.6 12.9 0.03 0.08 0.08 64 1012.6
20260506151204 11 144 3.2 12.9 0.03 0.08 0.08 68 1012.3
20260506150704 11 137 0.0 8.0 0.00 0.05 0.05 70 1012.0
20260506150203 11 41 0.0 8.0 0.00 0.05 0.05 70 1012.0
20260506145704 11 11 1.6 9.7 0.00 0.05 0.05 71 1012.0
20260506145203 11 17 1.6 4.8 0.00 0.05 0.05 73 1011.7
20260506144704 10 23 0.0 3.2 0.00 0.05 0.05 73 1011.6
20260506144204 10 151 1.6 8.0 0.00 0.05 0.05 75 1011.5
20260506143704 10 15 1.6 8.0 0.00 0.05 0.05 77 1011.3
20260506142704 10 152 1.6 4.8 0.00 0.05 0.05 77 1011.3
20260506142203 10 153 0.0 0.0 0.00 0.05 0.05 77 1011.4
20260506141703 10 5 0.0 0.0 0.00 0.05 0.05 78 1011.4
20260506141203 10 163 0.0 3.2 0.00 0.05 0.05 79 1011.4
20260506140705 10 133 0.0 4.8 0.00 0.05 0.05 79 1011.4
20260506140204 10 51 0.0 1.6 0.00 0.05 0.05 80 1011.4
20260506135705 10 159 1.6 8.0 0.00 0.05 0.05 81 1011.4
20260506135204 9 38 0.0 8.0 0.00 0.05 0.05 83 1011.2
20260506134704 9 170 0.0 8.0 0.00 0.05 0.05 83 1011.2
20260506134204 8 18 1.6 8.0 0.00 0.05 0.05 83 1011.3
20260506133704 8 147 0.0 1.6 0.00 0.05 0.05 84 1011.2
20260506133204 8 191 0.0 1.6 0.00 0.05 0.05 85 1011.1
20260506132704 8 176 0.0 9.7 0.00 0.05 0.05 85 1011.1
20260506132205 8 179 0.0 0.0 0.00 0.05 0.05 86 1011.0
20260506131204 8 186 1.6 8.0 0.00 0.05 0.05 87 1010.6
20260506130704 8 107 0.0 1.6 0.00 0.05 0.05 88 1010.7
20260506130205 7 17 0.0 0.0 0.00 0.05 0.05 88 1010.9
20260506125203 7 122 0.0 0.0 0.00 0.05 0.05 90 1010.9